Stations météo

réclame
Mon MeteoGroup
Catania/Fontanarossa, Italie (16460): Température de l'air & dewpoint: 20.09.2018 09:00:00 - 26.09.2018 09:00:00 (CEST)Catania/Fontanarossa, Italie (16460): Vitesse du vent: 20.09.2018 09:00:00 - 26.09.2018 09:00:00 (CEST)Catania/Fontanarossa, Italie (16460): Direction du vent: 20.09.2018 09:00:00 - 26.09.2018 09:00:00 (CEST)Catania/Fontanarossa, Italie (16460): reduced air pressure: 20.09.2018 09:00:00 - 26.09.2018 09:00:00 (CEST)Catania/Fontanarossa, Italie (16460): visibility: 20.09.2018 09:00:00 - 26.09.2018 09:00:00 (CEST)Catania/Fontanarossa, Italie (16460): Quantités de précipitations: 20.09.2018 09:00:00 - 26.09.2018 09:00:00 (CEST)
Date & Time tt [°C] td [°C] ff [km/h] ff [knt] dd ppp [hPa] vv [km] rr [mm]
26.09.2018 09:00:00 20,0 16,0 15 8 E - 7 -
26.09.2018 08:00:00 20,6 17,7 4 2 - 1023,0 8 -
26.09.2018 07:00:00 21,0 18,0 8 4 W - 10 -
26.09.2018 06:00:00 20,0 18,0 5 3 WNW - 10 -
26.09.2018 05:00:00 20,8 18,0 11 6 W 1022,6 10 0,0
26.09.2018 04:00:00 22,0 16,0 4 2 - - 10 -
26.09.2018 03:00:00 22,0 16,0 9 5 SE - 10 -
26.09.2018 02:00:00 20,6 18,4 4 2 - 1022,8 10 -
26.09.2018 01:00:00 21,0 19,0 9 5 WSW - 10 -
26.09.2018 00:00:00 20,0 18,0 4 2 N - 10 -
25.09.2018 23:00:00 20,2 18,5 4 2 - 1023,1 8 0,0
25.09.2018 22:00:00 22,0 18,0 5 3 SE - 10 -
25.09.2018 21:00:00 24,0 17,0 13 7 SE - 7 -
25.09.2018 20:00:00 24,0 15,9 11 6 SE 1021,4 10 -
25.09.2018 19:00:00 24,0 16,0 13 7 ESE - 10 -
25.09.2018 18:00:00 24,0 16,0 11 6 ESE - 10 -
25.09.2018 17:00:00 25,0 15,5 18 10 ESE 1020,6 10 0,0
25.09.2018 16:00:00 26,0 15,0 21 11 ESE - 10 -
25.09.2018 15:00:00 26,0 15,0 22 12 ESE - 10 -
25.09.2018 14:00:00 25,8 14,7 24 13 ESE 1021,6 10 -
25.09.2018 13:00:00 26,0 15,0 24 13 ESE - 10 -
25.09.2018 12:00:00 26,0 16,0 24 13 ESE - 10 -
25.09.2018 11:00:00 25,8 17,2 26 14 ESE 1020,9 10 0,0
25.09.2018 10:00:00 25,0 18,0 26 14 E - 10 -
25.09.2018 09:00:00 25,0 19,0 34 18 E - 10 -
25.09.2018 08:00:00 24,7 18,9 41 22 E 1018,5 10 -
25.09.2018 07:00:00 25,0 20,0 31 17 E - 10 -
25.09.2018 06:00:00 23,0 21,0 5 3 W - 10 -
25.09.2018 05:00:00 23,4 20,5 2 1 - 1017,0 10 0,0
25.09.2018 04:00:00 23,0 21,0 5 3 WSW - 10 -
25.09.2018 03:00:00 24,0 21,0 2 1 W - 10 -
25.09.2018 02:00:00 25,2 21,5 4 2 - 1016,9 10 -
25.09.2018 01:00:00 25,0 21,0 5 3 W - 10 -
25.09.2018 00:00:00 26,0 20,0 8 4 NNE - 10 -
24.09.2018 23:00:00 26,3 20,2 15 8 ENE 1016,0 10 0,0
24.09.2018 22:00:00 27,0 21,0 16 9 ENE - 10 -
24.09.2018 21:00:00 27,0 21,0 15 8 ENE - 10 -
24.09.2018 20:00:00 26,7 22,6 18 10 ENE 1014,5 10 -
24.09.2018 19:00:00 27,0 22,0 9 5 E - 10 -
24.09.2018 18:00:00 28,0 22,0 16 9 E - 10 -
24.09.2018 17:00:00 27,9 20,3 16 9 ENE 1013,7 10 0,0
24.09.2018 16:00:00 29,0 20,0 24 13 ENE - 10 -
24.09.2018 15:00:00 32,0 20,0 11 6 - - 10 -
24.09.2018 14:00:00 32,1 17,7 15 8 WSW 1014,5 10 -
24.09.2018 13:00:00 31,0 16,0 16 9 W - 10 -
24.09.2018 12:00:00 29,0 18,0 13 7 WNW - 10 -
24.09.2018 11:00:00 28,0 18,9 18 10 W 1016,6 10 0,0
24.09.2018 10:00:00 26,0 20,0 21 11 W - 10 -
24.09.2018 09:00:00 24,0 20,0 21 11 W - 10 -
24.09.2018 08:00:00 22,5 19,8 13 7 W 1016,4 10 -
24.09.2018 07:00:00 21,0 19,0 11 6 W - 10 -
24.09.2018 06:00:00 22,0 19,0 15 8 W - 10 -
24.09.2018 05:00:00 22,1 19,3 21 11 W 1016,8 10 0,0
24.09.2018 04:00:00 23,0 20,0 15 8 W - 10 -
24.09.2018 03:00:00 23,0 20,0 13 7 W - 10 -
24.09.2018 02:00:00 23,2 20,3 15 8 W 1018,1 - -
24.09.2018 01:00:00 24,0 21,0 15 8 W - 10 -
24.09.2018 00:00:00 24,0 20,0 11 6 W - 10 -
23.09.2018 23:00:00 24,9 18,6 15 8 W 1019,3 10 0,0
23.09.2018 22:00:00 26,0 21,0 4 2 - - 10 -
23.09.2018 21:00:00 26,0 22,0 8 4 NNE - 10 -
23.09.2018 20:00:00 26,0 22,7 9 5 E 1019,0 10 -
23.09.2018 19:00:00 26,0 21,0 9 5 E - 10 -
23.09.2018 18:00:00 28,0 21,0 15 8 E - 10 -
23.09.2018 17:00:00 27,9 21,2 15 8 E 1019,0 10 0,0
23.09.2018 16:00:00 28,0 20,0 16 9 E - 10 -
23.09.2018 15:00:00 29,0 21,0 18 10 E - 10 -
23.09.2018 14:00:00 28,3 21,1 18 10 E 1019,9 10 -
23.09.2018 13:00:00 28,0 20,0 16 9 E - 10 -
23.09.2018 12:00:00 28,0 21,0 13 7 E - 10 -
23.09.2018 11:00:00 27,7 21,2 5 3 - 1020,7 10 0,0
23.09.2018 10:00:00 27,0 21,0 4 2 - - 10 -
23.09.2018 09:00:00 24,0 21,0 5 3 WSW - 10 -
23.09.2018 08:00:00 20,8 20,0 5 3 W 1019,3 10 -
23.09.2018 07:00:00 20,0 19,0 8 4 WSW - 10 -
23.09.2018 06:00:00 21,0 20,0 8 4 SW - 10 -
23.09.2018 05:00:00 20,9 19,9 9 5 WSW 1018,6 10 0,0
23.09.2018 04:00:00 22,0 21,0 9 5 W - 10 -
23.09.2018 03:00:00 22,0 21,0 9 5 WSW - 10 -
23.09.2018 02:00:00 22,5 20,6 5 3 W 1018,9 10 -
23.09.2018 01:00:00 24,0 21,0 8 4 WNW - 10 -
23.09.2018 00:00:00 24,0 21,0 11 6 W - 10 -
22.09.2018 23:00:00 25,1 20,3 13 7 WNW 1018,7 10 0,0
22.09.2018 22:00:00 26,0 21,0 8 4 NW - 10 -
22.09.2018 21:00:00 26,0 22,0 5 3 NNE - 10 -
22.09.2018 20:00:00 26,5 21,8 11 6 NE 1017,4 10 -
22.09.2018 19:00:00 27,0 22,0 16 9 ENE - 10 -
22.09.2018 18:00:00 30,0 19,0 13 7 WSW - 10 -
22.09.2018 17:00:00 31,0 18,2 15 8 WSW 1016,1 10 0,0
22.09.2018 16:00:00 30,0 19,0 13 7 W - 10 -
22.09.2018 15:00:00 30,0 19,0 13 7 SSW - 10 -
22.09.2018 14:00:00 29,0 19,8 16 9 SW 1017,2 10 -
22.09.2018 13:00:00 28,0 20,0 21 11 WSW - 10 -
22.09.2018 12:00:00 27,0 20,0 18 10 WSW - 10 -
22.09.2018 11:00:00 27,8 19,3 11 6 W 1017,6 10 0,0
22.09.2018 10:00:00 26,0 19,0 13 7 WSW - 10 -
22.09.2018 09:00:00 23,0 20,0 11 6 SW - 10 -
22.09.2018 08:00:00 21,0 19,2 9 5 WSW 1016,4 10 -
22.09.2018 07:00:00 20,0 19,0 11 6 W - 10 -
22.09.2018 06:00:00 20,0 19,0 11 6 WSW - 10 -
22.09.2018 05:00:00 20,1 19,3 11 6 W 1016,2 10 0,0
22.09.2018 04:00:00 20,0 19,0 9 5 W - 10 -
22.09.2018 03:00:00 20,0 19,0 13 7 WSW - 10 -
22.09.2018 02:00:00 20,1 19,4 9 5 W 1016,3 10 -
22.09.2018 01:00:00 21,0 20,0 11 6 W - 10 -
22.09.2018 00:00:00 21,0 20,0 8 4 WSW - 10 -
21.09.2018 23:00:00 22,2 20,4 2 1 - 1016,5 10 0,0
21.09.2018 22:00:00 23,0 21,0 8 4 NNE - 10 -
21.09.2018 21:00:00 23,0 21,0 4 2 N - 10 -
21.09.2018 20:00:00 23,5 20,7 8 4 - 1015,6 8 -
21.09.2018 19:00:00 25,0 20,0 5 3 E - 10 -
21.09.2018 18:00:00 26,0 20,0 5 3 E - 10 -
21.09.2018 17:00:00 24,8 20,6 5 3 SSW 1014,9 10 0,0
21.09.2018 16:00:00 25,0 20,0 5 3 - - 10 -
21.09.2018 15:00:00 24,0 20,0 4 2 - - 10 -
21.09.2018 14:00:00 21,9 20,0 21 11 WSW 1016,3 7 -
21.09.2018 13:00:00 26,0 21,0 15 8 E - 10 -
21.09.2018 12:00:00 26,0 20,0 15 8 E - 10 -
21.09.2018 11:00:00 25,6 19,9 5 3 S 1016,3 10 0,0
21.09.2018 10:00:00 24,0 20,0 5 3 SSW - 8 -
21.09.2018 09:00:00 21,0 19,0 11 6 W - 10 -
21.09.2018 08:00:00 19,0 18,2 5 3 WSW 1015,7 8 -
21.09.2018 07:00:00 18,0 18,0 8 4 WSW - 8 -
21.09.2018 06:00:00 19,0 18,0 8 4 W - 10 -
21.09.2018 05:00:00 18,7 18,0 5 3 W 1015,3 10 0,0
21.09.2018 04:00:00 19,0 18,0 9 5 WSW - 10 -
21.09.2018 03:00:00 20,0 19,0 11 6 WSW - 10 -
21.09.2018 02:00:00 20,0 19,0 5 3 WSW - 10 -
21.09.2018 01:00:00 20,0 19,0 8 4 WSW - 10 -
21.09.2018 00:00:00 21,0 20,0 8 4 W - 10 -
20.09.2018 23:00:00 21,5 19,7 8 4 W 1016,4 10 0,0
20.09.2018 22:00:00 23,0 21,0 9 5 WNW - 10 -
20.09.2018 21:00:00 23,0 21,0 4 2 - - 10 -
20.09.2018 20:00:00 24,3 19,5 4 2 - 1015,9 10 -
20.09.2018 19:00:00 24,0 21,0 2 1 - - 10 -
20.09.2018 18:00:00 25,0 21,0 4 2 - - 10 -
20.09.2018 17:00:00 24,0 21,0 8 4 W - 8 -
20.09.2018 16:00:00 23,0 20,0 9 5 SW - 8 -
20.09.2018 15:00:00 27,0 19,0 9 5 S - 10 -
20.09.2018 14:00:00 27,2 19,7 9 5 E 1016,6 10 -
20.09.2018 13:00:00 28,0 22,0 15 8 ESE - 10 -
20.09.2018 12:00:00 28,0 19,0 11 6 ESE - 10 -
20.09.2018 11:00:00 27,9 18,8 8 4 ESE 1017,4 10 0,0
20.09.2018 10:00:00 25,0 19,0 5 3 SSW - 10 -
20.09.2018 09:00:00 24,0 20,0 4 2 - - 10 -

tt = Température de l'air
td = dewpoint
ff = Vitesse du vent
dd = Direction du vent
ppp = reduced air pressure
vv = visibility
rr = Quantités de précipitations

stations d'obs. à proximité